Location: Plainartige
(45.6866°N, 1.7993°E)
Time: 03:00:01
(UTC+00:00)

DIWATA 2B (PO-101) - Pass Details

Date: 05 July 2022
Orbit: 583 x 599 km, 98.0° (Epoch: 13 August)

Event Time Altitude Azimuth Distance (km) Brightness Sun altitude
Exits shadow 02:13:32 26° 206° (SSW) 1,200 ? -14.9°
Maximum altitude 02:15:29 43° 261° (W) 849 ? -14.7°
Drops below altitude 10° 02:19:32 10° 334° (NNW) 1,949 ? -14.3°
Sets 02:21:48 0° 341° (NNW) 2,855 ? -14.1°
